Time,TemperatureF,DewpointF,PressureIn,WindDirection,WindDirectionDegrees,WindSpeedMPH,WindSpeedGustMPH,Humidity,HourlyPrecipIn,Conditions,Clouds,dailyrainin,SolarRadiationWatts/m^2,SoftwareType,DateUTC
2013-06-23 00:11:00,70.0,67.0,29.75,East,87,3.0,-999.0,89,-99.99,,,-99.99,0.000000,,2013-06-23 05:11:00,
2013-06-23 00:22:00,69.0,66.0,29.69,East,90,5.0,-999.0,90,-99.99,,,-99.99,0.000000,,2013-06-23 05:22:00,
2013-06-23 00:32:00,69.0,66.0,29.69,East,90,5.0,-999.0,90,-99.99,,,-99.99,0.000000,,2013-06-23 05:32:00,
2013-06-23 00:41:00,69.0,66.0,29.69,East,96,6.0,-999.0,90,-99.99,,,-99.99,0.000000,,2013-06-23 05:41:00,
2013-06-23 00:51:00,69.0,66.0,29.68,East,99,6.0,-999.0,90,-99.99,,,-99.99,0.000000,,2013-06-23 05:51:00,
2013-06-23 01:02:00,68.0,65.0,29.67,East,94,4.0,-999.0,91,-99.99,,,-99.99,0.000000,,2013-06-23 06:02:00,
2013-06-23 01:12:00,68.0,65.0,29.67,East,94,4.0,-999.0,91,-99.99,,,-99.99,0.000000,,2013-06-23 06:12:00,
2013-06-23 01:22:00,68.0,65.0,29.65,East,88,5.0,-999.0,91,-99.99,,,-99.99,0.000000,,2013-06-23 06:22:00,
2013-06-23 01:33:00,68.0,65.0,29.65,East,88,5.0,-999.0,91,-99.99,,,-99.99,0.000000,,2013-06-23 06:33:00,
2013-06-23 01:43:00,69.0,66.0,29.67,East,100,6.0,-999.0,91,-99.99,,,-99.99,0.000000,,2013-06-23 06:43:00,
2013-06-23 01:52:00,69.0,66.0,29.67,ESE,109,7.0,-999.0,91,-99.99,,,-99.99,0.000000,,2013-06-23 06:52:00,
2013-06-23 02:02:00,69.0,66.0,29.67,ESE,109,7.0,-999.0,91,-99.99,,,-99.99,0.000000,,2013-06-23 07:02:00,
2013-06-23 02:12:00,69.0,66.0,29.67,ESE,103,5.0,-999.0,91,-99.99,,,-99.99,0.000000,,2013-06-23 07:12:00,
2013-06-23 02:22:00,69.0,66.0,29.68,ESE,107,5.0,-999.0,91,-99.99,,,-99.99,0.000000,,2013-06-23 07:22:00,
2013-06-23 02:34:00,69.0,66.0,29.68,ESE,107,5.0,-999.0,91,-99.99,,,-99.99,0.000000,,2013-06-23 07:34:00,
2013-06-23 02:43:00,69.0,66.0,29.67,ESE,110,8.0,-999.0,91,-99.99,,,-99.99,0.000000,,2013-06-23 07:43:00,
2013-06-23 02:53:00,69.0,66.0,29.65,ESE,111,3.0,-999.0,91,-99.99,,,-99.99,0.000000,,2013-06-23 07:53:00,
2013-06-23 03:02:00,69.0,66.0,29.65,ESE,111,3.0,-999.0,91,-99.99,,,-99.99,0.000000,,2013-06-23 08:02:00,
2013-06-23 03:12:00,69.0,67.0,29.66,North,360,7.0,-999.0,92,-99.99,,,-99.99,0.000000,,2013-06-23 08:12:00,
2013-06-23 03:22:00,69.0,67.0,29.63,ESE,107,6.0,-999.0,93,-99.99,,,-99.99,0.000000,,2013-06-23 08:22:00,
2013-06-23 03:34:00,69.0,67.0,29.63,ESE,107,6.0,-999.0,93,-99.99,,,-99.99,0.000000,,2013-06-23 08:34:00,
2013-06-23 03:43:00,68.0,66.0,29.67,ESE,113,6.0,-999.0,94,-99.99,,,-99.99,0.000000,,2013-06-23 08:43:00,
2013-06-23 03:53:00,68.0,66.0,29.66,SE,138,5.0,-999.0,94,-99.99,,,-99.99,0.000000,,2013-06-23 08:53:00,
2013-06-23 04:02:00,68.0,66.0,29.66,SE,138,5.0,-999.0,94,-99.99,,,-99.99,0.000000,,2013-06-23 09:02:00,
2013-06-23 04:12:00,68.0,67.0,29.67,SE,142,8.0,-999.0,95,-99.99,,,-99.99,0.000000,,2013-06-23 09:12:00,
2013-06-23 04:22:00,67.0,65.0,29.66,SSE,153,8.0,-999.0,94,-99.99,,,-99.99,0.000000,,2013-06-23 09:22:00,
2013-06-23 04:34:00,67.0,65.0,29.66,SSE,153,8.0,-999.0,94,-99.99,,,-99.99,0.000000,,2013-06-23 09:34:00,
2013-06-23 04:43:00,66.0,64.0,29.62,SSE,153,0.0,-999.0,94,-99.99,,,-99.99,0.000000,,2013-06-23 09:43:00,
2013-06-23 04:53:00,65.0,63.0,29.61,SSE,153,0.0,-999.0,94,-99.99,,,-99.99,0.000000,,2013-06-23 09:53:00,
2013-06-23 05:02:00,65.0,63.0,29.61,SSE,153,0.0,-999.0,94,-99.99,,,-99.99,0.000000,,2013-06-23 10:02:00,
2013-06-23 05:11:00,65.0,64.0,29.63,SE,144,7.0,-999.0,95,-99.99,,,-99.99,0.000000,,2013-06-23 10:11:00,
2013-06-23 05:22:00,66.0,65.0,29.64,South,188,8.0,-999.0,95,-99.99,,,-99.99,0.000000,,2013-06-23 10:22:00,
2013-06-23 05:34:00,66.0,65.0,29.64,South,188,8.0,-999.0,95,-99.99,,,-99.99,0.000000,,2013-06-23 10:34:00,
2013-06-23 05:43:00,65.0,64.0,29.60,SSE,161,2.0,-999.0,95,-99.99,,,-99.99,0.000000,,2013-06-23 10:43:00,
2013-06-23 05:52:00,65.0,64.0,29.59,SSE,159,2.0,-999.0,95,-99.99,,,-99.99,0.000000,,2013-06-23 10:52:00,
2013-06-23 06:01:00,65.0,64.0,29.59,SSE,159,2.0,-999.0,95,-99.99,,,-99.99,0.000000,,2013-06-23 11:01:00,
2013-06-23 06:11:00,65.0,64.0,29.57,SSE,159,0.0,-999.0,95,-99.99,,,-99.99,0.000000,,2013-06-23 11:11:00,
2013-06-23 06:22:00,65.0,64.0,29.54,SSE,159,0.0,-999.0,95,-99.99,,,-99.99,5.000000,,2013-06-23 11:22:00,
2013-06-23 06:33:00,65.0,64.0,29.54,SSE,159,0.0,-999.0,95,-99.99,,,-99.99,5.000000,,2013-06-23 11:33:00,
2013-06-23 06:43:00,65.0,64.0,29.58,SSE,159,1.0,-999.0,95,-99.99,,,-99.99,7.000000,,2013-06-23 11:43:00,
2013-06-23 06:53:00,65.0,64.0,29.58,SSE,159,1.0,-999.0,95,-99.99,,,-99.99,7.000000,,2013-06-23 11:53:00,
2013-06-23 07:01:00,64.0,63.0,29.61,SSE,159,5.0,-999.0,95,-99.99,,,-99.99,12.000000,,2013-06-23 12:01:00,
2013-06-23 07:12:00,65.0,64.0,29.62,SSE,159,2.0,-999.0,95,-99.99,,,-99.99,40.000000,,2013-06-23 12:12:00,
2013-06-23 07:22:00,65.0,64.0,29.62,SSE,159,2.0,-999.0,95,-99.99,,,-99.99,40.000000,,2013-06-23 12:22:00,
2013-06-23 07:33:00,64.0,63.0,29.60,SSE,155,5.0,-999.0,95,-99.99,,,-99.99,40.000000,,2013-06-23 12:33:00,
2013-06-23 07:42:00,65.0,64.0,29.64,South,169,8.0,-999.0,95,-99.99,,,-99.99,30.000000,,2013-06-23 12:42:00,
2013-06-23 07:53:00,65.0,64.0,29.64,South,169,8.0,-999.0,95,-99.99,,,-99.99,30.000000,,2013-06-23 12:53:00,
2013-06-23 08:02:00,65.0,64.0,29.63,SSE,165,6.0,-999.0,95,-99.99,,,-99.99,28.000000,,2013-06-23 13:02:00,
2013-06-23 08:11:00,65.0,64.0,29.63,SSW,192,6.0,-999.0,95,-99.99,,,-99.99,130.000000,,2013-06-23 13:11:00,
2013-06-23 08:23:00,65.0,64.0,29.63,SSW,192,6.0,-999.0,95,-99.99,,,-99.99,130.000000,,2013-06-23 13:23:00,
2013-06-23 08:34:00,66.0,64.0,29.62,South,186,5.0,-999.0,93,-99.99,,,-99.99,151.000000,,2013-06-23 13:34:00,
2013-06-23 08:43:00,66.0,63.0,29.62,South,187,3.0,-999.0,90,-99.99,,,-99.99,174.000000,,2013-06-23 13:43:00,
2013-06-23 08:53:00,66.0,63.0,29.62,South,187,3.0,-999.0,90,-99.99,,,-99.99,174.000000,,2013-06-23 13:53:00,
2013-06-23 09:04:00,67.0,64.0,29.63,SSW,195,7.0,-999.0,89,-99.99,,,-99.99,253.000000,,2013-06-23 14:04:00,
2013-06-23 09:11:00,67.0,63.0,29.63,WSW,244,11.0,-999.0,88,-99.99,,,-99.99,418.000000,,2013-06-23 14:11:00,
2013-06-23 09:22:00,67.0,63.0,29.63,WSW,244,11.0,-999.0,88,-99.99,,,-99.99,418.000000,,2013-06-23 14:22:00,
2013-06-23 09:34:00,67.0,62.0,29.64,WSW,248,12.0,-999.0,85,-99.99,,,-99.99,343.000000,,2013-06-23 14:34:00,
2013-06-23 09:44:00,67.0,62.0,29.65,SW,225,16.0,-999.0,84,-99.99,,,-99.99,271.000000,,2013-06-23 14:44:00,
2013-06-23 09:52:00,67.0,62.0,29.65,SW,225,16.0,-999.0,84,-99.99,,,-99.99,271.000000,,2013-06-23 14:52:00,
2013-06-23 10:05:00,67.0,62.0,29.65,SW,227,11.0,-999.0,84,-99.99,,,-99.99,399.000000,,2013-06-23 15:05:00,
2013-06-23 10:11:00,68.0,62.0,29.64,SSW,206,12.0,-999.0,82,-99.99,,,-99.99,643.000000,,2013-06-23 15:11:00,
2013-06-23 10:22:00,68.0,62.0,29.64,SSW,206,12.0,-999.0,82,-99.99,,,-99.99,643.000000,,2013-06-23 15:22:00,
2013-06-23 10:35:00,69.0,63.0,29.64,SSW,192,10.0,-999.0,80,-99.99,,,-99.99,700.000000,,2013-06-23 15:35:00,
2013-06-23 10:43:00,69.0,62.0,29.64,WSW,244,14.0,-999.0,79,-99.99,,,-99.99,809.000000,,2013-06-23 15:43:00,
2013-06-23 10:52:00,69.0,62.0,29.64,WSW,244,14.0,-999.0,79,-99.99,,,-99.99,809.000000,,2013-06-23 15:52:00,
2013-06-23 11:06:00,70.0,63.0,29.64,SW,236,11.0,-999.0,78,-99.99,,,-99.99,953.000000,,2013-06-23 16:06:00,
2013-06-23 11:12:00,70.0,63.0,29.64,SW,236,11.0,-999.0,78,-99.99,,,-99.99,953.000000,,2013-06-23 16:12:00,
2013-06-23 11:22:00,70.0,62.0,29.65,SSW,196,11.0,-999.0,77,-99.99,,,-99.99,759.000000,,2013-06-23 16:22:00,
2013-06-23 11:36:00,70.0,62.0,29.65,SSW,203,12.0,-999.0,76,-99.99,,,-99.99,343.000000,,2013-06-23 16:36:00,
2013-06-23 11:42:00,70.0,62.0,29.65,SSW,203,12.0,-999.0,76,-99.99,,,-99.99,343.000000,,2013-06-23 16:42:00,
2013-06-23 11:53:00,71.0,62.0,29.66,SW,228,13.0,-999.0,74,-99.99,,,-99.99,935.000000,,2013-06-23 16:53:00,
2013-06-23 12:03:00,72.0,63.0,29.67,WSW,237,11.0,-999.0,74,-99.99,,,-99.99,,,2013-06-23 17:03:00,
2013-06-23 12:11:00,72.0,63.0,29.67,WSW,237,11.0,-999.0,74,-99.99,,,-99.99,,,2013-06-23 17:11:00,
2013-06-23 12:22:00,72.0,63.0,29.67,SW,218,12.0,-999.0,74,-99.99,,,-99.99,350.000000,,2013-06-23 17:22:00,
2013-06-23 12:33:00,72.0,64.0,29.68,West,273,9.0,-999.0,75,-99.99,,,-99.99,615.000000,,2013-06-23 17:33:00,
2013-06-23 12:43:00,72.0,64.0,29.68,West,273,9.0,-999.0,75,-99.99,,,-99.99,615.000000,,2013-06-23 17:43:00,
2013-06-23 12:53:00,72.0,63.0,29.69,West,261,11.0,-999.0,74,-99.99,,,-99.99,462.000000,,2013-06-23 17:53:00,
2013-06-23 13:01:00,72.0,63.0,29.68,WNW,289,10.0,-999.0,74,-99.99,,,-99.99,343.000000,,2013-06-23 18:01:00,
2013-06-23 13:11:00,72.0,63.0,29.68,WNW,289,10.0,-999.0,74,-99.99,,,-99.99,343.000000,,2013-06-23 18:11:00,
2013-06-23 13:22:00,72.0,63.0,29.68,West,259,10.0,-999.0,74,-99.99,,,-99.99,364.000000,,2013-06-23 18:22:00,
2013-06-23 13:34:00,72.0,62.0,29.68,West,269,8.0,-999.0,72,-99.99,,,-99.99,,,2013-06-23 18:34:00,
2013-06-23 13:42:00,72.0,62.0,29.68,West,269,8.0,-999.0,72,-99.99,,,-99.99,,,2013-06-23 18:42:00,
2013-06-23 13:53:00,73.0,63.0,29.69,West,259,10.0,-999.0,70,-99.99,,,-99.99,313.000000,,2013-06-23 18:53:00,
2013-06-23 14:01:00,73.0,62.0,29.70,West,261,7.0,-999.0,69,-99.99,,,-99.99,367.000000,,2013-06-23 19:01:00,
2013-06-23 14:11:00,73.0,62.0,29.70,West,261,7.0,-999.0,69,-99.99,,,-99.99,367.000000,,2013-06-23 19:11:00,
2013-06-23 14:21:00,73.0,63.0,29.70,WNW,300,7.0,-999.0,70,-99.99,,,-99.99,930.000000,,2013-06-23 19:21:00,
2013-06-23 14:32:00,74.0,63.0,29.71,WSW,244,7.0,-999.0,68,-99.99,,,-99.99,,,2013-06-23 19:32:00,
2013-06-23 14:43:00,74.0,63.0,29.71,WSW,244,7.0,-999.0,68,-99.99,,,-99.99,,,2013-06-23 19:43:00,
2013-06-23 14:53:00,76.0,63.0,29.70,WSW,256,6.0,-999.0,64,-99.99,,,-99.99,318.000000,,2013-06-23 19:53:00,
2013-06-23 15:02:00,77.0,63.0,29.70,WNW,286,7.0,-999.0,61,-99.99,,,-99.99,,,2013-06-23 20:02:00,
2013-06-23 15:12:00,77.0,63.0,29.70,WNW,286,7.0,-999.0,61,-99.99,,,-99.99,,,2013-06-23 20:12:00,
2013-06-23 15:24:00,77.0,63.0,29.70,SW,215,7.0,-999.0,62,-99.99,,,-99.99,,,2013-06-23 20:24:00,
2013-06-23 15:33:00,78.0,63.0,29.70,SW,230,8.0,-999.0,60,-99.99,,,-99.99,,,2013-06-23 20:33:00,
2013-06-23 15:42:00,78.0,63.0,29.70,SW,230,8.0,-999.0,60,-99.99,,,-99.99,,,2013-06-23 20:42:00,
2013-06-23 15:53:00,78.0,62.0,29.70,WNW,300,5.0,-999.0,59,-99.99,,,-99.99,,,2013-06-23 20:53:00,
2013-06-23 16:01:00,79.0,61.0,29.70,West,260,10.0,-999.0,55,-99.99,,,-99.99,933.000000,,2013-06-23 21:01:00,
2013-06-23 16:11:00,79.0,61.0,29.70,West,260,10.0,-999.0,55,-99.99,,,-99.99,933.000000,,2013-06-23 21:11:00,
2013-06-23 16:22:00,78.0,61.0,29.70,West,277,10.0,-999.0,55,-99.99,,,-99.99,970.000000,,2013-06-23 21:22:00,
2013-06-23 16:33:00,78.0,61.0,29.70,West,277,10.0,-999.0,55,-99.99,,,-99.99,970.000000,,2013-06-23 21:33:00,
2013-06-23 16:44:00,79.0,62.0,29.70,WSW,244,9.0,-999.0,56,-99.99,,,-99.99,949.000000,,2013-06-23 21:44:00,
2013-06-23 16:52:00,78.0,60.0,29.71,WNW,286,11.0,-999.0,54,-99.99,,,-99.99,958.000000,,2013-06-23 21:52:00,
2013-06-23 17:01:00,78.0,60.0,29.71,WNW,286,11.0,-999.0,54,-99.99,,,-99.99,958.000000,,2013-06-23 22:01:00,
2013-06-23 17:11:00,79.0,61.0,29.71,SW,232,5.0,-999.0,54,-99.99,,,-99.99,849.000000,,2013-06-23 22:11:00,
2013-06-23 17:22:00,78.0,59.0,29.71,WNW,287,8.0,-999.0,53,-99.99,,,-99.99,237.000000,,2013-06-23 22:22:00,
2013-06-23 17:32:00,78.0,59.0,29.71,WNW,287,8.0,-999.0,53,-99.99,,,-99.99,237.000000,,2013-06-23 22:32:00,
2013-06-23 17:43:00,79.0,59.0,29.71,WSW,237,9.0,-999.0,51,-99.99,,,-99.99,137.000000,,2013-06-23 22:43:00,
2013-06-23 17:53:00,78.0,60.0,29.72,WNW,284,9.0,-999.0,54,-99.99,,,-99.99,174.000000,,2013-06-23 22:53:00,
2013-06-23 18:01:00,78.0,60.0,29.72,WNW,284,9.0,-999.0,54,-99.99,,,-99.99,174.000000,,2013-06-23 23:01:00,
2013-06-23 18:11:00,78.0,58.0,29.72,SW,225,7.0,-999.0,51,-99.99,,,-99.99,127.000000,,2013-06-23 23:11:00,
2013-06-23 18:22:00,78.0,58.0,29.73,SSW,210,8.0,-999.0,51,-99.99,,,-99.99,557.000000,,2013-06-23 23:22:00,
2013-06-23 18:33:00,78.0,58.0,29.73,SSW,210,8.0,-999.0,51,-99.99,,,-99.99,557.000000,,2013-06-23 23:33:00,
2013-06-23 18:44:00,78.0,59.0,29.73,SW,229,6.0,-999.0,52,-99.99,,,-99.99,285.000000,,2013-06-23 23:44:00,
2013-06-23 18:52:00,77.0,57.0,29.72,SW,234,8.0,-999.0,51,-99.99,,,-99.99,464.000000,,2013-06-23 23:52:00,
2013-06-23 19:01:00,77.0,57.0,29.72,SW,234,8.0,-999.0,51,-99.99,,,-99.99,464.000000,,2013-06-24 00:01:00,
2013-06-23 19:11:00,77.0,58.0,29.73,WSW,240,5.0,-999.0,52,-99.99,,,-99.99,86.000000,,2013-06-24 00:11:00,
2013-06-23 19:22:00,77.0,57.0,29.73,WSW,254,4.0,-999.0,51,-99.99,,,-99.99,107.000000,,2013-06-24 00:22:00,
2013-06-23 19:33:00,77.0,57.0,29.73,WSW,254,4.0,-999.0,51,-99.99,,,-99.99,107.000000,,2013-06-24 00:33:00,
2013-06-23 19:42:00,76.0,60.0,29.74,SSW,210,4.0,-999.0,57,-99.99,,,-99.99,93.000000,,2013-06-24 00:42:00,
2013-06-23 19:52:00,76.0,60.0,29.74,SSW,209,2.0,-999.0,58,-99.99,,,-99.99,105.000000,,2013-06-24 00:52:00,
2013-06-23 20:01:00,76.0,60.0,29.74,SSW,209,2.0,-999.0,58,-99.99,,,-99.99,105.000000,,2013-06-24 01:01:00,
2013-06-23 20:11:00,76.0,61.0,29.74,SW,215,1.0,-999.0,59,-99.99,,,-99.99,172.000000,,2013-06-24 01:11:00,
2013-06-23 20:22:00,77.0,62.0,29.75,South,184,2.0,-999.0,59,-99.99,,,-99.99,120.000000,,2013-06-24 01:22:00,
2013-06-23 20:32:00,77.0,62.0,29.75,South,184,2.0,-999.0,59,-99.99,,,-99.99,120.000000,,2013-06-24 01:32:00,
2013-06-23 20:42:00,75.0,61.0,29.75,South,188,1.0,-999.0,62,-99.99,,,-99.99,30.000000,,2013-06-24 01:42:00,
2013-06-23 20:52:00,74.0,61.0,29.75,South,184,1.0,-999.0,65,-99.99,,,-99.99,28.000000,,2013-06-24 01:52:00,
2013-06-23 21:02:00,74.0,61.0,29.75,South,184,1.0,-999.0,65,-99.99,,,-99.99,28.000000,,2013-06-24 02:02:00,
2013-06-23 21:11:00,74.0,62.0,29.75,South,184,0.0,-999.0,67,-99.99,,,-99.99,16.000000,,2013-06-24 02:11:00,
2013-06-23 21:22:00,73.0,62.0,29.75,South,184,1.0,-999.0,69,-99.99,,,-99.99,7.000000,,2013-06-24 02:22:00,
2013-06-23 21:33:00,73.0,62.0,29.75,South,184,1.0,-999.0,69,-99.99,,,-99.99,7.000000,,2013-06-24 02:33:00,
2013-06-23 21:42:00,72.0,62.0,29.75,South,184,1.0,-999.0,71,-99.99,,,-99.99,0.000000,,2013-06-24 02:42:00,
2013-06-23 21:53:00,72.0,62.0,29.75,South,184,1.0,-999.0,71,-99.99,,,-99.99,0.000000,,2013-06-24 02:53:00,
2013-06-23 22:01:00,71.0,62.0,29.76,South,184,0.0,-999.0,73,-99.99,,,-99.99,0.000000,,2013-06-24 03:01:00,
2013-06-23 22:11:00,71.0,63.0,29.77,South,184,0.0,-999.0,75,-99.99,,,-99.99,0.000000,,2013-06-24 03:11:00,
2013-06-23 22:22:00,71.0,63.0,29.77,South,184,0.0,-999.0,75,-99.99,,,-99.99,0.000000,,2013-06-24 03:22:00,
2013-06-23 22:33:00,70.0,62.0,29.78,WSW,250,2.0,-999.0,76,-99.99,,,-99.99,0.000000,,2013-06-24 03:33:00,
2013-06-23 22:43:00,70.0,62.0,29.78,WSW,250,0.0,-999.0,75,-99.99,,,-99.99,0.000000,,2013-06-24 03:43:00,
2013-06-23 22:53:00,70.0,62.0,29.78,WSW,250,0.0,-999.0,75,-99.99,,,-99.99,0.000000,,2013-06-24 03:53:00,
2013-06-23 23:02:00,70.0,62.0,29.78,WSW,250,0.0,-999.0,76,-99.99,,,-99.99,0.000000,,2013-06-24 04:02:00,
2013-06-23 23:12:00,70.0,62.0,29.79,WSW,250,0.0,-999.0,77,-99.99,,,-99.99,0.000000,,2013-06-24 04:12:00,
2013-06-23 23:22:00,70.0,62.0,29.79,WSW,250,0.0,-999.0,77,-99.99,,,-99.99,0.000000,,2013-06-24 04:22:00,
2013-06-23 23:33:00,69.0,61.0,29.79,WSW,250,0.0,-999.0,77,-99.99,,,-99.99,0.000000,,2013-06-24 04:33:00,
2013-06-23 23:43:00,69.0,61.0,29.79,WSW,250,0.0,-999.0,77,-99.99,,,-99.99,0.000000,,2013-06-24 04:43:00,
2013-06-23 23:52:00,69.0,61.0,29.79,WSW,250,0.0,-999.0,77,-99.99,,,-99.99,0.000000,,2013-06-24 04:52:00,